Home   Weather   Juneau   Past weeks

Flag for USA Past Weather in Juneau, Alaska, USA — Yesterday and Last 2 Weeks

Now
21 °F

Passing clouds.


Feels Like: 21 °F
Forecast: 22 / 36 °F
Wind: No wind

Location: Juneau International Airport

Current Time: Feb 26, 2017 at 5:40:55 am

Latest Report: Feb 26, 2017 at 4:53 am


Visibility: 10 mi

Pressure: 30.26 "Hg

Humidity: 92%

Dew Point: 19 °F

Location of JuneauLocation

Past Weather in Juneau — Graph

°F

Juneau Temperature Yesterday

Maximum temperature yesterday: 42 °F (at 2:53 pm)
Minimum temperature yesterday: 24 °F (at 11:53 pm)
Average temperature yesterday: 32 °F

High & Low Weather Summary for the Past Weeks

 TemperatureHumidityPressure
High52 °F (Feb 14, 3:53 am)100% (Feb 16, 8:53 am)30.45 "Hg (Feb 16, 8:53 am)
Low18 °F (Feb 20, 4:53 am)36% (Feb 19, 2:53 pm)29.03 "Hg (Feb 15, 6:53 am)
Average33 °F85%29.77 "Hg
* Reported Feb 11 3:53 am — Feb 26 3:53 am, Juneau, Weather by CustomWeather, © 2017

Note: Actual official high and low records may vary slightly from our data, if they occured in-between our weather recording intervals... More about our weather records

Advertising

Juneau Weather History for the Previous 24 Hours

Scroll right to see more
 ConditionsComfort  
Time TempWeatherWind HumidityBarometerVisibility
3:53 am
Sun, Feb 26
22 °FPassing clouds.No wind92%30.29 "Hg10 mi
2:53 am21 °FPassing clouds.No wind92%30.31 "Hg10 mi
1:53 am22 °FPassing clouds.No wind92%30.34 "Hg10 mi
12:53 am23 °FClear.No wind92%30.35 "Hg10 mi
11:53 pm
Sat, Feb 25
24 °FClear.No wind88%30.35 "Hg10 mi
10:53 pm26 °FPassing clouds.No wind88%30.34 "Hg10 mi
9:53 pm25 °FPassing clouds.7 mph92%30.33 "Hg10 mi
8:53 pm25 °FPassing clouds.No wind96%30.33 "Hg10 mi
7:53 pm28 °FClear.No wind93%30.34 "Hg10 mi
6:53 pm29 °FPassing clouds.5 mph93%30.31 "Hg10 mi
5:53 pm31 °FPassing clouds.No wind89%30.29 "Hg10 mi
4:53 pm34 °FPassing clouds.No wind85%30.27 "Hg10 mi
3:53 pm39 °FPassing clouds.5 mph76%30.24 "Hg10 mi
2:53 pm42 °FPassing clouds.3 mph68%30.22 "Hg10 mi
1:53 pm39 °FScattered clouds.7 mph82%30.21 "Hg10 mi
12:53 pm38 °FScattered clouds.5 mph83%30.19 "Hg10 mi
11:53 am35 °FPartly sunny.6 mph88%30.17 "Hg10 mi
10:53 am36 °FMore clouds than sun.No wind89%30.15 "Hg10 mi
9:53 am33 °FMore clouds than sun.No wind96%30.12 "Hg8 mi
8:53 am32 °FMore clouds than sun.No wind96%30.10 "Hg8 mi
7:53 am32 °FMostly cloudy.No wind100%30.08 "Hg7 mi
6:59 am32 °FLight snow. Ice fog.3 mph92%30.08 "Hg4 mi
5:53 am33 °FLight snow. Fog.3 mph92%30.06 "Hg2 mi
Weather by CustomWeather, © 2017

See weather overviewHow to use our weather pages

LIVE ANNULAR SOLAR ECLIPSE – Watch the eclipse as it happens